Location: Recife
(8.0585°S, 34.8848°W)
Time: 11:19:52
(UTC-03:00)

Explorer 7 - Pass Details

Date: 20 April 2026
Orbit: 427 x 536 km, 50.2° (Epoch: 14 May)

Event Time Altitude Azimuth Distance (km) Brightness Sun altitude
Rises 11:21:54 0° 242° (WSW) 2,523 10.1 70.3°
Reaches altitude 10° 11:24:29 10° 260° (W) 1,664 9.4 70.2°
Maximum altitude 11:27:13 19° 307° (NW) 1,221 9.1 70.2°
Drops below altitude 10° 11:30:01 10° 353° (N) 1,703 9.8 70.1°
Sets 11:32:43 0° 11° (NNE) 2,604 10.5 70.0°
